TimeEDT,TemperatureF,Dew PointF,Humidity,Sea Level PressureIn,VisibilityMPH,Wind Direction,Wind SpeedMPH,Gust SpeedMPH,PrecipitationIn,Events,Conditions,WindDirDegrees,DateUTC
12:53 AM,37.0,34.0,89,30.03,10.0,Calm,Calm,-,N/A,,Clear,0,2013-10-21 04:53:00
1:53 AM,37.0,35.1,93,30.05,10.0,Calm,Calm,-,N/A,,Clear,0,2013-10-21 05:53:00
2:53 AM,36.0,34.0,93,30.06,10.0,Calm,Calm,-,N/A,,Clear,0,2013-10-21 06:53:00
3:53 AM,34.0,33.1,96,30.06,9.0,Calm,Calm,-,N/A,,Clear,0,2013-10-21 07:53:00
4:53 AM,34.0,33.1,96,30.07,10.0,Calm,Calm,-,N/A,,Clear,0,2013-10-21 08:53:00
5:53 AM,34.0,32.0,92,30.09,10.0,Calm,Calm,-,N/A,,Clear,0,2013-10-21 09:53:00
6:53 AM,33.1,32.0,96,30.10,10.0,Calm,Calm,-,N/A,,Clear,0,2013-10-21 10:53:00
7:53 AM,36.0,35.1,97,30.12,10.0,Calm,Calm,-,N/A,,Clear,0,2013-10-21 11:53:00
8:53 AM,48.9,42.1,77,30.12,10.0,South,3.5,-,N/A,,Clear,190,2013-10-21 12:53:00
9:53 AM,57.0,42.1,57,30.12,10.0,West,5.8,-,N/A,,Clear,270,2013-10-21 13:53:00
10:53 AM,62.1,37.9,41,30.12,10.0,West,10.4,-,N/A,,Clear,260,2013-10-21 14:53:00
11:53 AM,64.0,37.0,37,30.10,10.0,WNW,8.1,-,N/A,,Clear,290,2013-10-21 15:53:00
12:53 PM,64.9,36.0,34,30.08,10.0,West,11.5,-,N/A,,Clear,280,2013-10-21 16:53:00
1:53 PM,66.9,37.9,34,30.06,10.0,SW,10.4,-,N/A,,Clear,220,2013-10-21 17:53:00
2:53 PM,64.9,39.9,40,30.06,10.0,SW,11.5,-,N/A,,Clear,230,2013-10-21 18:53:00
3:53 PM,64.0,39.0,40,30.05,10.0,SW,9.2,-,N/A,,Clear,230,2013-10-21 19:53:00
4:53 PM,61.0,42.1,50,30.05,10.0,SSW,11.5,-,N/A,,Clear,200,2013-10-21 20:53:00
5:53 PM,55.9,45.0,67,30.06,10.0,SSW,6.9,-,N/A,,Clear,200,2013-10-21 21:53:00
6:53 PM,52.0,45.0,77,30.07,10.0,SSW,5.8,-,N/A,,Clear,210,2013-10-21 22:53:00
7:53 PM,52.0,44.1,74,30.06,10.0,SW,4.6,-,N/A,,Clear,220,2013-10-21 23:53:00
8:53 PM,51.1,43.0,74,30.06,10.0,Calm,Calm,-,N/A,,Clear,0,2013-10-22 00:53:00
9:53 PM,48.9,44.1,83,30.06,10.0,Calm,Calm,-,N/A,,Clear,0,2013-10-22 01:53:00
10:53 PM,44.1,41.0,89,30.04,10.0,Calm,Calm,-,N/A,,Clear,0,2013-10-22 02:53:00
11:53 PM,42.1,39.9,92,30.02,10.0,Calm,Calm,-,N/A,,Clear,0,2013-10-22 03:53:00